Windsor Locks, CT

1:47 AM EDT on March 27, 2017 (GMT -0400)
Bradley International

Weather History for KBDL - January, 2014

Change the Weather History Date:

Sunday, January 26, 2014

  Actual Average Record
Temperature  
Mean Temperature 16 °F 26 °F  
Max Temperature 21 °F 35 °F 65 °F (1950)
Min Temperature 11 °F 18 °F -8 °F (1948)
Degree Days  
Heating Degree Days 49 39  
Month to date heating degree days 1038 1011  
Since 1 July heating degree days 3334 3255  
Cooling Degree Days 0 0  
Month to date cooling degree days 0 0  
Year to date cooling degree days 0 0  
Moisture  
Dew Point 4 °F    
Average Humidity 56    
Maximum Humidity 73    
Minimum Humidity 39    
Precipitation  
Precipitation T in 0.10 in 2.00 in (1986)
Month to date precipitation 3.40 2.71  
Year to date precipitation 3.40 2.71  
Snow  
Snow T in 0.40 in 6.20 in (1949)
Month to date snowfall 10.3 10.3  
Since 1 July snowfall 23.0 19.7  
Snow Depth 1.00 in    
Sea Level Pressure  
Sea Level Pressure 29.74 in    
Wind  
Wind Speed 11 mph (WSW)    
Max Wind Speed 26 mph    
Max Gust Speed 37 mph    
Visibility 10 miles    
Events Snow    
T = Trace of Precipitation, MM = Missing Value Source: NWS Daily Summary

Daily Weather History Graph

Daily Weather History Graph

Search for Another Location

Airport or City:

Trip Planner

Search our weather history database for the weather conditions in past years. The results will help you decide how hot, cold, wet, or windy it might be!

Date:

Astronomy

Jan. 26, 2014 Rise Set
Actual Time 7:08 AM EST 4:58 PM EST
Civil Twilight 6:38 AM EST 5:28 PM EST
Nautical Twilight 6:05 AM EST 6:01 PM EST
Astronomical Twilight 5:32 AM EST 6:34 PM EST
Moon 2:43 AM EST (1/26) 12:44 PM EST (1/26)
Length of Visible Light 10h 49m
Length of Day
9h 49m
Waning Crescent, 24% of the Moon is Illuminated
Jan 26
Waning Crescent
Jan 30
New
Feb 6
First Quarter
Feb 14
Full
Feb 22
Last Quarter

Hourly Weather History & Observations

Time (EST) Temp. Windchill Dew Point Humidity Pressure Visibility Wind Dir Wind Speed Gust Speed Precip Events Conditions
12:51 AM 19.9 °F 10.1 °F 12.9 °F 74% 29.40 in 10.0 mi WSW 8.1 mph - N/A   Clear
1:51 AM 19.9 °F 10.1 °F 12.9 °F 74% 29.44 in 10.0 mi West 8.1 mph - 0.00 in Snow Light Snow
2:51 AM 19.9 °F 6.2 °F 8.1 °F 60% 29.51 in 10.0 mi NW 15.0 mph 23.0 mph 0.00 in   Scattered Clouds
3:51 AM 18.0 °F 6.1 °F 6.1 °F 60% 29.56 in 10.0 mi WNW 10.4 mph - N/A   Mostly Cloudy
4:51 AM 17.1 °F 2.5 °F -2.9 °F 41% 29.63 in 10.0 mi WNW 15.0 mph 34.5 mph N/A   Mostly Cloudy
5:51 AM 14.0 °F -0.8 °F -4.0 °F 45% 29.66 in 10.0 mi WNW 13.8 mph - N/A   Partly Cloudy
6:51 AM 10.9 °F 1.4 °F -2.9 °F 54% 29.70 in 10.0 mi NNW 5.8 mph - N/A   Partly Cloudy
7:51 AM 12.9 °F -2.8 °F 1.0 °F 59% 29.75 in 10.0 mi WNW 15.0 mph - N/A   Partly Cloudy
8:51 AM 14.0 °F -0.2 °F 1.0 °F 56% 29.80 in 10.0 mi West 12.7 mph - N/A   Scattered Clouds
9:51 AM 16.0 °F 5.3 °F 1.0 °F 52% 29.83 in 10.0 mi West 8.1 mph - N/A   Scattered Clouds
10:51 AM 19.0 °F 5.6 °F -0.9 °F 42% 29.83 in 10.0 mi WSW 13.8 mph - N/A   Mostly Cloudy
11:51 AM 19.0 °F 6.8 °F -0.9 °F 42% 29.83 in 10.0 mi WNW 11.5 mph 19.6 mph N/A   Scattered Clouds
12:51 PM 19.9 °F 11.1 °F -2.0 °F 38% 29.79 in 10.0 mi West 6.9 mph - N/A   Mostly Cloudy
1:51 PM 19.0 °F 5.0 °F -0.9 °F 42% 29.79 in 10.0 mi WSW 15.0 mph - N/A   Mostly Cloudy
2:51 PM 19.0 °F 7.5 °F -0.0 °F 43% 29.82 in 10.0 mi WSW 10.4 mph - N/A   Overcast
3:51 PM 19.0 °F 9.0 °F -0.9 °F 42% 29.83 in 10.0 mi SW 8.1 mph - N/A   Overcast
4:51 PM 19.0 °F 5.6 °F 1.0 °F 46% 29.84 in 10.0 mi SSW 13.8 mph 19.6 mph N/A   Mostly Cloudy
5:51 PM 19.0 °F 7.5 °F 3.0 °F 50% 29.85 in 10.0 mi SSW 10.4 mph - N/A   Overcast
6:51 PM 19.0 °F 7.5 °F 6.1 °F 57% 29.86 in 10.0 mi South 10.4 mph - N/A   Overcast
7:51 PM 19.0 °F 8.2 °F 7.0 °F 59% 29.85 in 10.0 mi South 9.2 mph - N/A   Overcast
8:51 PM 19.0 °F 8.2 °F 9.0 °F 65% 29.85 in 10.0 mi South 9.2 mph - N/A   Overcast
9:51 PM 19.0 °F 8.2 °F 10.0 °F 68% 29.84 in 10.0 mi South 9.2 mph - N/A   Overcast
10:51 PM 19.9 °F 9.3 °F 12.0 °F 71% 29.83 in 10.0 mi South 9.2 mph - N/A   Overcast
11:51 PM 19.9 °F 14.9 °F 12.0 °F 71% 29.82 in 10.0 mi SSW 3.5 mph - N/A   Overcast